Location: Newark
(49.8167°N, 23.9500°E)
Time: 07:32:25
(UTC+00:00)

ISS - Visible Passes

Search period start: 10 December 2019 00:00
Search period end: 20 December 2019 00:00
Orbit: 411 x 421 km, 51.6° (Epoch: 10 December)

Date Brightness Start Highest point End Pass type
(mag) Time Alt. Az. Time Alt. Az. Time Alt. Az.
10 Dec -1.5 15:51:48 10° W 15:54:39 26° SW 15:57:29 10° SSE visible
11 Dec -2.1 15:03:09 10° W 15:06:17 37° SSW 15:09:25 10° SE visible
12 Dec -0.4 15:52:37 10° WSW 15:54:02 12° SW 15:55:26 10° SSW visible
13 Dec -0.7 15:03:21 10° W 15:05:45 18° SW 15:08:08 10° S visible
